レモン彗星

C/2023 S3 ( Lemmon )

English version
Home page
Updated on April 11, 2024

---------------------------------------------------------------------

・ プロフィール

発見日 2023年9月25日
発見光度 19.9等
発見者 Mt. Lemmon

・ 写真集

・ 軌道要素

Epoch 2024 Mar. 31.0 TT = JDT 2460400.5
T 2024 Jan. 19.62412 TT                                 Rudenko
q   0.8301606            (2000.0)            P               Q
n   0.00648354     Peri.  281.57227     +0.49187838     -0.70309416
a  28.4835836      Node   233.83382     -0.30998174     -0.69258635
e   0.9708548      Incl.  140.49819     -0.81361353     -0.16119163
P 152
>From 523 observations 2023 Sept. 25-2024 Mar. 19, mean residual 0".6.

・ 星図

・ 光度変化

        m1 = 16.0 + 5 logΔ + 10.0 log r  [   ,-72]  (              〜2023年11月 8日)
        m1 = 12.5 + 5 logΔ + 30.0 log r  [-72, 72]  (2023年11月 8日〜2024年 3月31日)
        m1 = 16.0 + 5 logΔ + 10.0 log r  [ 72,   ]  (2024年 3月31日〜              )

---------------------------------------------------------------------

軌道要素はM.P.E.C. 2024-F34に掲載されたものです。
星図はステラナビゲータ Ver.11 (アストロアーツ) で作成したものです。
光度グラフはComet for Windowsで作成したものです。

---------------------------------------------------------------------

Copyright(C) Seiichi Yoshida (comet@aerith.net). All rights reserved.